Regional Weather Roundup
Issued by NWS

Home | Current Version | Previous Version | Graphics & Text | Print | Product List | Glossary On
Versions: 1 2 3 4 5 6 7 8 9 10 11 12 13 14 15 16 17 18 19 20 21 22 23 24 25 26 27 28 29 30 31 32 33 34 35 36 37 38 39 40 41 42 43 44 45 46 47 48 49 50
000
ASUS43 KMPX 031310
RWRMN
WEATHER ROUNDUP FOR MINNESOTA
NATIONAL WEATHER SERVICE TWIN CITIES/CHANHASSEN MN
800 AM CDT WED JUN 03 2015


NOTE: "FAIR" INDICATES FEW OR NO CLOUDS BELOW 12,000 FEET WITH NO
SIGNIFICANT WEATHER AND/OR OBSTRUCTIONS TO VISIBILITY. N/A MEANS
CURRENT SKY AND/OR WEATHER CONDITIONS ARE NOT AVAILABLE.

MNZ060>063-068>070-031400-
   Twin Cities Metro

CITY           SKY/WX    TMP DP  RH WIND       PRES   REMARKS
TWIN CITIES    CLOUDY    62  57  83 SE8       29.86S
ST PAUL        LGT RAIN  63  57  81 SE10      29.87S
CRYSTAL        CLOUDY    66  56  70 S13G20    29.84F
BLAINE         CLOUDY    66  57  72 SE10      29.86S
LAKEVILLE      CLOUDY    61  55  82 SE9       29.87F
EDEN PRAIRIE   RAIN      61  58  90 SE7       29.84S FOG
SOUTH ST PAUL  LGT RAIN  63  57  81 S6        29.87S
LAKE ELMO      CLOUDY    64  57  77 S12       29.89R
$$
MNZ001>005-007-008-013>017-022>024-027-028-031400-
   Northwest Minnesota

CITY           SKY/WX    TMP DP  RH WIND       PRES   REMARKS
BEMIDJI        PTSUNNY   60  58  92 E7        29.78F
HALLOCK        CLOUDY    54  46  76 N9        29.84R
ROSEAU         CLOUDY    59  54  82 NE10      29.84R
WARROAD        FOG       57  54  88 NE9G16    29.85R VSB 1/2
THIEF RVR FALL CLOUDY    61  57  88 NE12      29.79S
CROOKSTON      CLOUDY    63  61  94 NE8       29.78R
FOSSTON        CLOUDY    61  59  94 NE3       29.77S
DETROIT LAKES  CLOUDY    64  61  88 S7        29.77R
MOORHEAD       CLOUDY    61  59  94 NW9       29.76R
PARK RAPIDS    CLOUDY    64  57  78 SE12      29.78R
MAHNOMEN       CLOUDY    63  59  87 SE5       29.75R
$$
MNZ006-009>011-018-025>026-031400-
   North Central Minnesota

CITY           SKY/WX    TMP DP  RH WIND       PRES   REMARKS
BAUDETTE       CLOUDY    59  57  93 E8        29.82S
FLAG ISLAND    CLOUDY    57  55  94 NE10      29.83S
INTL FALLS     CLOUDY    59  57  93 VRB3      29.85R
WASKISH        PTSUNNY   61  59  94 E5        29.81F
BIG FORK       PTSUNNY   61  57  88 SE5       29.84R
LONGVILLE      CLOUDY    63  57  82 S12       29.80S
GRAND RAPIDS   CLOUDY    61  54  77 SE6       29.83S
CRANE LAKE     CLOUDY    55  55 100 S5        29.87S
ORR            CLOUDY    57  54  88 SE2       29.83R
COOK           PTSUNNY   59  55  88 CALM      29.86S
WALKER         CLOUDY    60  57  88 CALM      29.79R
$$
MNZ012-019>021-037-031400-
   Northeast Minnesota

CITY           SKY/WX    TMP DP  RH WIND       PRES   REMARKS
DULUTH         PTSUNNY   56  51  84 SE12      29.87S
ELY            CLOUDY    55  54  94 S6        29.88R
HIBBING        CLOUDY    58  56  93 SE6       29.85S
EVELETH        CLOUDY    57  55  94 NE3       29.88R
DULUTH HARBOR  PTSUNNY   52  48  87 N8        29.89F
TWO HARBORS    CLOUDY    55  52  88 NE8       29.88S
SILVER BAY     CLOUDY    55  54  94 CALM      29.89R FOG
GRAND MARAIS     N/A     46  43  89 E3        29.90F
G MARAIS ARPRT LGT RAIN  54  50  87 S3        29.91F
$$
MNZ029>031-032-039>041-046>048-054>057-064-031400-
   West Central Minnesota

CITY           SKY/WX    TMP DP  RH WIND       PRES   REMARKS
FERGUS FALLS   CLOUDY    64  61  88 W10       29.76R
WHEATON        CLOUDY    61  61 100 W7        29.79R FOG
MORRIS         CLOUDY    64  61  88 S8        29.76R
ALEXANDRIA     CLOUDY    64  58  80 S9        29.78S
ELBOW LAKE     PTSUNNY   63  59  87 S14       29.76R
WADENA         CLOUDY    63  57  82 S7        29.76R
GLENWOOD       CLOUDY    63  59  88 S10       29.79S
APPLETON       CLOUDY    66  61  82 SW8       29.76S
BENSON         CLOUDY    64  57  77 S7        29.78R THUNDER
ORTONVILLE     RAIN      66  61  82 W10       29.75F
MADISON        CLOUDY    66  63  88 NW5       29.75F
WILLMAR        FAIR      66  59  77 S7        29.81F
$$
MNZ033>034-036-042>043-049>051-058-059-031400-
   Central Minnesota

CITY           SKY/WX    TMP DP  RH WIND       PRES   REMARKS
ST CLOUD       CLOUDY    65  57  75 S12G20    29.82S
SAUK CENTRE    CLOUDY    64  57  80 S13       29.80R
PAYNESVILLE    CLOUDY    62  56  82 E12       29.81F
AITKIN         CLOUDY    63  55  77 SE7       29.81S
PINE RIVER     CLOUDY    63  57  82 SE10      29.84R
BRAINERD       CLOUDY    63  57  81 S8        29.81R
STAPLES        CLOUDY    63  55  77 S8        29.78S
LONG PRAIRIE   PTSUNNY   63  55  77 SE14      29.80R
LITTLE FALLS   CLOUDY    64  55  72 SE10G17   29.80R
LITCHFIELD     CLOUDY    66  61  82 SE7       29.82F
BUFFALO        CLOUDY    64  56  73 S8G16     29.85R
MAPLE LAKE     CLOUDY    65  58  78 S7        29.85R
$$
MNZ037-044-045-052-053-031400-
   East Central Minnesota

CITY           SKY/WX    TMP DP  RH WIND       PRES   REMARKS
PRINCETON      CLOUDY    66  57  72 S9        29.85R
MORA           PTSUNNY   64  55  72 S6        29.86S
CAMBRIDGE      CLOUDY    66  55  68 SE9       29.84R
RUSH CITY      CLOUDY    64  56  75 S8        29.86S
MOOSE LAKE     CLOUDY    61  55  82 S3        29.83F
HINCKLEY       CLOUDY    63  55  77 SE7       29.85F
CLOQUET        PTSUNNY   54  52  94 SE7       29.86S
MCGREGOR       CLOUDY    59  55  88 SE6       29.84F
$$
MNZ071>073-080-081-089-090-097-098-031400-
   Southwest Minnesota

CITY           SKY/WX    TMP DP  RH WIND       PRES   REMARKS
MONTEVIDEO     CLOUDY    66  61  82 S8        29.79R
GRANITE FALLS  CLOUDY    66  59  79 SE8       29.80S
CANBY          CLOUDY    65  62  89 S5        29.78S
MARSHALL       CLOUDY    64  57  77 S9        29.78F
REDWOOD FALLS  CLOUDY    66  58  75 S14       29.80R
OLIVIA         CLOUDY    63  54  72 SE9       29.80S
PIPESTONE      RAIN      63  59  88 NW7       29.80S
WINDOM         CLOUDY    64  57  77 S7        29.81F
WORTHINGTON    CLOUDY    63  55  77 S8        29.80F
JACKSON        CLOUDY    63  57  82 SE8       29.81F
TRACY          CLOUDY    65  60  83 S8        29.79F
SLAYTON        CLOUDY    62  59  89 CALM      29.81F
$$
MNZ065>067-074>077-082>085-091>093-031400-
   South Central Minnesota

CITY           SKY/WX    TMP DP  RH WIND       PRES   REMARKS
MANKATO        CLOUDY    63  57  82 SE15      29.85F
NEW ULM        CLOUDY    63  57  82 S12       29.83R
ST JAMES       CLOUDY    64  59  82 SE12      29.84R
FAIRMONT       CLOUDY    63  54  72 SE14G21   29.83F
GLENCOE        CLOUDY    64  60  85 SE6       29.83S
FARIBAULT      TSTM      61  57  88 SE8       29.89R
OWATONNA       TSTM      63  55  77 S13G18    29.90R
WASECA         CLOUDY    59  55  88 SE9       29.90S
ALBERT LEA     CLOUDY    63  55  77 S15       29.88S
$$
MNZ078>079-086>088-094>096-031400-
   Southeast Minnesota

CITY           SKY/WX    TMP DP  RH WIND       PRES   REMARKS
ROCHESTER      PTSUNNY   62  55  77 S18       29.93S
RED WING       CLOUDY    64  54  68 S7        29.89S
STANTON        CLOUDY    64  56  74 SW8       29.90R
DODGE CENTER   CLOUDY    63  55  77 S18       29.90S
WINONA         CLOUDY    63  54  72 SE10G16   29.94F
AUSTIN         LGT RAIN  63  55  77 S10G16    29.91S
PRESTON        PTSUNNY   61  54  77 S15       29.95R
$$
ABBREVIATIONS USED IN REMARKS
   TC - TEMPERATURES IN CELSIUS
  WCI - WIND CHILL INDEX
   HX - HEAT INDEX
  VSB - VISIBILITY
$$



USA.gov is the U.S. government's official web portal to all federal, state and local government web resources and services.